| time (UTC) | temp F | wind direction | speed knots | gust knots | rain 1hr in | rain 24hr in | rain mn in | humidity % | barometer mb |
| 20260510234517 | 43 | 0.0 | 0.9 | 0.00 | 0.00 | 0.00 | 78 | ||
| 20260510233517 | 42 | 338 | 0.9 | 0.9 | 0.00 | 0.00 | 0.00 | 77 | |
| 20260510232517 | 42 | 0.0 | 0.0 | 0.00 | 0.00 | 0.00 | 76 | ||
| 20260510231517 | 43 | 0.0 | 0.0 | 0.00 | 0.00 | 0.00 | 75 | ||
| 20260510230517 | 43 | 0.0 | 0.0 | 0.00 | 0.00 | 0.00 | 73 | ||
| 20260510225517 | 44 | 0.0 | 0.0 | 0.00 | 0.00 | 0.00 | 72 | ||
| 20260510224517 | 44 | 0.0 | 0.0 | 0.00 | 0.00 | 0.00 | 71 | ||
| 20260510223517 | 44 | 0.0 | 0.0 | 0.00 | 0.00 | 0.00 | 71 | ||
| 20260510222517 | 45 | 0.0 | 0.9 | 0.00 | 0.00 | 0.00 | 69 | ||
| 20260510221517 | 45 | 203 | 0.9 | 1.7 | 0.00 | 0.00 | 0.00 | 68 | |
| 20260510220517 | 45 | 158 | 0.9 | 1.7 | 0.00 | 0.00 | 0.00 | 69 | |
| 20260510215537 | 45 | 225 | 1.7 | 2.6 | 0.00 | 0.00 | 0.00 | 70 | |
| 20260510214517 | 44 | 0.0 | 0.9 | 0.00 | 0.00 | 0.00 | 73 | ||
| 20260510213517 | 45 | 0.0 | 0.0 | 0.00 | 0.00 | 0.00 | 73 | ||
| 20260510212537 | 45 | 0.0 | 0.0 | 0.00 | 0.00 | 0.00 | 71 | ||
| 20260510211557 | 46 | 0.0 | 0.0 | 0.00 | 0.00 | 0.00 | 70 | ||
| 20260510210537 | 46 | 0.0 | 0.0 | 0.00 | 0.00 | 0.00 | 68 | ||
| 20260510205517 | 46 | 0.0 | 0.0 | 0.00 | 0.00 | 0.00 | 66 | ||
| 20260510204517 | 47 | 158 | 0.9 | 0.9 | 0.00 | 0.00 | 0.00 | 65 | |
| 20260510203517 | 47 | 158 | 0.9 | 1.7 | 0.00 | 0.00 | 0.00 | 65 | |
| 20260510202517 | 47 | 135 | 0.9 | 1.7 | 0.00 | 0.00 | 0.00 | 64 | |
| 20260510201537 | 48 | 0.0 | 0.0 | 0.00 | 0.00 | 0.00 | 63 | ||
| 20260510200517 | 48 | 0.0 | 0.0 | 0.00 | 0.00 | 0.00 | 63 | ||
| 20260510195517 | 48 | 158 | 0.9 | 1.7 | 0.00 | 0.00 | 0.00 | 62 | |
| 20260510194517 | 49 | 0.0 | 0.9 | 0.00 | 0.00 | 0.00 | 62 | ||
| 20260510193517 | 49 | 135 | 0.9 | 1.7 | 0.00 | 0.00 | 0.00 | 61 | |
| 20260510192517 | 50 | 0.0 | 0.0 | 0.00 | 0.00 | 0.00 | 60 | ||
| 20260510191517 | 50 | 135 | 0.9 | 2.6 | 0.00 | 0.00 | 0.00 | 58 | |
| 20260510190517 | 51 | 68 | 0.9 | 1.7 | 0.00 | 0.00 | 0.00 | 55 | |
| 20260510185517 | 51 | 68 | 0.9 | 0.9 | 0.00 | 0.00 | 0.00 | 55 | |
| 20260510184517 | 52 | 68 | 1.7 | 1.7 | 0.00 | 0.00 | 0.00 | 53 | |
| 20260510183517 | 52 | 68 | 1.7 | 2.6 | 0.00 | 0.00 | 0.00 | 53 | |
| 20260510182517 | 53 | 68 | 3.5 | 6.1 | 0.00 | 0.00 | 0.00 | 53 | |
| 20260510181517 | 53 | 68 | 1.7 | 2.6 | 0.00 | 0.00 | 0.00 | 51 | |
| 20260510180517 | 53 | 68 | 0.9 | 2.6 | 0.00 | 0.00 | 0.00 | 52 | |
| 20260510175537 | 53 | 90 | 1.7 | 3.5 | 0.00 | 0.00 | 0.00 | 51 | |
| 20260510174516 | 54 | 68 | 2.6 | 5.2 | 0.00 | 0.00 | 0.00 | 51 | |
| 20260510173516 | 54 | 0.0 | 0.9 | 0.00 | 0.00 | 0.00 | 53 | ||
| 20260510172517 | 54 | 68 | 2.6 | 7.8 | 0.00 | 0.00 | 0.00 | 52 | |
| 20260510171516 | 53 | 68 | 3.5 | 4.3 | 0.00 | 0.00 | 0.00 | 53 | |
| 20260510170517 | 52 | 68 | 3.5 | 4.3 | 0.00 | 0.00 | 0.00 | 54 | |
| 20260510165517 | 53 | 68 | 1.7 | 3.5 | 0.00 | 0.00 | 0.00 | 50 | |
| 20260510164517 | 53 | 45 | 3.5 | 4.3 | 0.00 | 0.00 | 0.00 | 53 | |
| 20260510163536 | 53 | 68 | 6.1 | 7.8 | 0.00 | 0.00 | 0.00 | 52 | |
| 20260510162517 | 53 | 68 | 4.3 | 6.1 | 0.00 | 0.00 | 0.00 | 53 | |
| 20260510161516 | 53 | 68 | 6.1 | 8.7 | 0.00 | 0.00 | 0.00 | 52 | |
| 20260510160516 | 54 | 68 | 0.9 | 2.6 | 0.00 | 0.00 | 0.00 | 50 | |
| 20260510155516 | 54 | 0 | 1.7 | 3.5 | 0.00 | 0.00 | 0.00 | 51 | |
| 20260510154516 | 53 | 45 | 4.3 | 7.8 | 0.00 | 0.00 | 0.00 | 52 | |
| 20260510153516 | 54 | 45 | 0.9 | 1.7 | 0.00 | 0.00 | 0.00 | 50 | |
| 20260510152516 | 54 | 90 | 1.7 | 3.5 | 0.00 | 0.00 | 0.00 | 51 | |
| 20260510151516 | 54 | 45 | 7.8 | 11.3 | 0.00 | 0.00 | 0.00 | 51 | |
| 20260510150537 | 54 | 68 | 4.3 | 7.0 | 0.00 | 0.00 | 0.00 | 49 | |
| 20260510145516 | 55 | 68 | 4.3 | 9.6 | 0.00 | 0.00 | 0.00 | 51 | |
| 20260510144516 | 54 | 68 | 7.8 | 10.4 | 0.00 | 0.00 | 0.00 | 50 | |
| 20260510143516 | 55 | 68 | 6.1 | 9.6 | 0.00 | 0.00 | 0.00 | 50 | |
| 20260510142516 | 54 | 68 | 6.1 | 8.7 | 0.00 | 0.00 | 0.00 | 50 | |
| 20260510141516 | 54 | 68 | 6.1 | 11.3 | 0.00 | 0.00 | 0.00 | 51 | |
| 20260510140516 | 55 | 68 | 1.7 | 4.3 | 0.00 | 0.00 | 0.00 | 51 | |
| 20260510135517 | 55 | 0 | 3.5 | 5.2 | 0.00 | 0.00 | 0.00 | 50 | |
| 20260510134516 | 55 | 45 | 2.6 | 5.2 | 0.00 | 0.00 | 0.00 | 53 | |
| 20260510133517 | 54 | 68 | 4.3 | 7.8 | 0.00 | 0.00 | 0.00 | 53 | |
| 20260510132516 | 53 | 90 | 6.1 | 9.6 | 0.00 | 0.00 | 0.00 | 54 | |
| 20260510131516 | 54 | 45 | 7.8 | 11.3 | 0.00 | 0.00 | 0.00 | 51 | |
| 20260510130516 | 54 | 68 | 3.5 | 6.1 | 0.00 | 0.00 | 0.00 | 54 | |
| 20260510125516 | 53 | 68 | 5.2 | 7.8 | 0.00 | 0.00 | 0.00 | 55 | |
| 20260510124516 | 54 | 68 | 2.6 | 4.3 | 0.00 | 0.00 | 0.00 | 52 | |
| 20260510123536 | 53 | 68 | 2.6 | 4.3 | 0.00 | 0.00 | 0.00 | 54 | |
| 20260510122516 | 54 | 68 | 4.3 | 7.0 | 0.00 | 0.00 | 0.00 | 55 | |
| 20260510121516 | 53 | 68 | 2.6 | 5.2 | 0.00 | 0.00 | 0.00 | 56 | |
| 20260510120516 | 53 | 68 | 5.2 | 7.8 | 0.00 | 0.00 | 0.00 | 58 | |
| 20260510115536 | 52 | 68 | 5.2 | 7.8 | 0.00 | 0.00 | 0.00 | 58 | |
| 20260510114516 | 53 | 68 | 4.3 | 7.0 | 0.00 | 0.00 | 0.00 | 56 | |
| 20260510113516 | 53 | 68 | 4.3 | 9.6 | 0.00 | 0.00 | 0.00 | 60 | |
| 20260510112516 | 52 | 68 | 6.1 | 10.4 | 0.00 | 0.00 | 0.00 | 62 | |
| 20260510111516 | 52 | 68 | 2.6 | 7.8 | 0.00 | 0.00 | 0.00 | 63 | |
| 20260510110536 | 51 | 23 | 4.3 | 6.1 | 0.00 | 0.00 | 0.00 | 63 | |
| 20260510105516 | 51 | 0 | 2.6 | 5.2 | 0.00 | 0.00 | 0.00 | 64 | |
| 20260510104516 | 52 | 68 | 4.3 | 7.0 | 0.00 | 0.00 | 0.00 | 63 | |
| 20260510103516 | 52 | 68 | 4.3 | 7.8 | 0.00 | 0.00 | 0.00 | 62 | |
| 20260510102536 | 52 | 68 | 4.3 | 12.2 | 0.00 | 0.00 | 0.00 | 64 | |
| 20260510101516 | 51 | 68 | 8.7 | 11.3 | 0.00 | 0.00 | 0.00 | 62 | |
| 20260510100536 | 50 | 68 | 4.3 | 7.0 | 0.00 | 0.00 | 0.00 | 67 | |
| 20260510095516 | 50 | 45 | 3.5 | 6.1 | 0.00 | 0.00 | 0.00 | 69 | |
| 20260510094516 | 50 | 68 | 6.1 | 10.4 | 0.00 | 0.00 | 0.00 | 68 | |
| 20260510093516 | 50 | 68 | 5.2 | 9.6 | 0.00 | 0.00 | 0.00 | 70 | |
| 20260510092516 | 50 | 68 | 5.2 | 9.6 | 0.00 | 0.00 | 0.00 | 71 | |
| 20260510091516 | 48 | 68 | 8.7 | 13.9 | 0.00 | 0.00 | 0.00 | 72 | |
| 20260510090516 | 48 | 68 | 5.2 | 11.3 | 0.00 | 0.00 | 0.00 | 72 | |
| 20260510085516 | 48 | 45 | 7.8 | 13.0 | 0.00 | 0.00 | 0.00 | 74 | |
| 20260510084516 | 48 | 68 | 5.2 | 8.7 | 0.00 | 0.00 | 0.00 | 74 | |
| 20260510083537 | 48 | 68 | 7.8 | 12.2 | 0.00 | 0.00 | 0.00 | 75 | |
| 20260510082536 | 47 | 68 | 5.2 | 8.7 | 0.00 | 0.00 | 0.00 | 77 | |
| 20260510081536 | 46 | 68 | 6.1 | 10.4 | 0.00 | 0.00 | 0.00 | 79 | |
| 20260510080536 | 46 | 45 | 4.3 | 6.1 | 0.00 | 0.00 | 0.00 | 79 | |
| 20260510075536 | 46 | 68 | 4.3 | 7.0 | 0.00 | 0.00 | 0.00 | 79 | |
| 20260510074516 | 46 | 45 | 5.2 | 7.8 | 0.00 | 0.00 | 0.00 | 79 | |
| 20260510073516 | 46 | 45 | 7.0 | 12.2 | 0.00 | 0.00 | 0.00 | 79 | |
| 20260510072516 | 47 | 45 | 7.0 | 11.3 | 0.00 | 0.00 | 0.00 | 78 | |
| 20260510071518 | 47 | 45 | 6.1 | 12.2 | 0.00 | 0.00 | 0.00 | 79 | |
| 20260510070517 | 47 | 68 | 6.1 | 9.6 | 0.00 | 0.00 | 0.00 | 80 | |
| 20260510065518 | 46 | 45 | 4.3 | 7.0 | 0.00 | 0.00 | 0.00 | 82 | |
| 20260510064538 | 46 | 68 | 6.1 | 11.3 | 0.00 | 0.00 | 0.00 | 84 | |
| 20260510063516 | 45 | 68 | 5.2 | 10.4 | 0.00 | 0.00 | 0.00 | 84 | |
| 20260510062518 | 45 | 45 | 7.8 | 13.0 | 0.00 | 0.00 | 0.00 | 85 | |
| 20260510061517 | 44 | 45 | 0.9 | 1.7 | 0.00 | 0.00 | 0.00 | 89 | |
| 20260510060517 | 43 | 68 | 3.5 | 5.2 | 0.00 | 0.00 | 0.00 | 90 | |
| 20260510055518 | 43 | 45 | 5.2 | 9.6 | 0.00 | 0.00 | 0.00 | 90 | |
| 20260510054517 | 43 | 45 | 3.5 | 9.6 | 0.00 | 0.00 | 0.00 | 91 | |
| 20260510053558 | 43 | 45 | 4.3 | 8.7 | 0.00 | 0.00 | 0.00 | 91 | |
| 20260510052517 | 43 | 68 | 6.1 | 9.6 | 0.00 | 0.00 | 0.00 | 91 | |
| 20260510051517 | 43 | 45 | 3.5 | 4.3 | 0.00 | 0.00 | 0.00 | 91 | |
| 20260510050517 | 43 | 0 | 1.7 | 3.5 | 0.00 | 0.00 | 0.00 | 91 | |
| 20260510045517 | 43 | 68 | 4.3 | 9.6 | 0.00 | 0.00 | 0.00 | 91 | |
| 20260510044518 | 43 | 68 | 2.6 | 6.1 | 0.00 | 0.00 | 0.00 | 91 | |
| 20260510043517 | 43 | 23 | 3.5 | 7.8 | 0.00 | 0.00 | 0.00 | 91 | |
| 20260510042517 | 43 | 23 | 2.6 | 5.2 | 0.00 | 0.00 | 0.00 | 91 | |
| 20260510041517 | 43 | 45 | 1.7 | 5.2 | 0.00 | 0.00 | 0.00 | 91 | |
| 20260510040537 | 43 | 68 | 4.3 | 7.0 | 0.00 | 0.00 | 0.00 | 91 | |
| 20260510035517 | 44 | 68 | 3.5 | 7.0 | 0.00 | 0.00 | 0.00 | 91 | |
| 20260510034517 | 44 | 45 | 1.7 | 5.2 | 0.00 | 0.00 | 0.00 | 91 | |
| 20260510033557 | 44 | 68 | 1.7 | 3.5 | 0.00 | 0.00 | 0.00 | 91 | |
| 20260510032557 | 44 | 0 | 1.7 | 14.8 | 0.00 | 0.00 | 0.00 | 91 | |
| 20260510031517 | 44 | 68 | 2.6 | 5.2 | 0.00 | 0.00 | 0.00 | 92 | |
| 20260510030517 | 44 | 45 | 2.6 | 7.0 | 0.00 | 0.00 | 0.00 | 92 | |
| 20260510025537 | 44 | 45 | 2.6 | 6.1 | 0.00 | 0.00 | 0.00 | 92 | |
| 20260510024517 | 44 | 0 | 2.6 | 5.2 | 0.00 | 0.00 | 0.00 | 92 | |
| 20260510023517 | 44 | 45 | 2.6 | 5.2 | 0.00 | 0.00 | 0.00 | 92 | |
| 20260510022517 | 44 | 45 | 3.5 | 5.2 | 0.00 | 0.00 | 0.00 | 92 | |
| 20260510021517 | 44 | 68 | 3.5 | 8.7 | 0.00 | 0.00 | 0.00 | 92 | |
| 20260510020558 | 44 | 68 | 1.7 | 5.2 | 0.00 | 0.00 | 0.00 | 93 | |
| 20260510015537 | 44 | 45 | 4.3 | 7.0 | 0.00 | 0.00 | 0.00 | 93 | |
| 20260510014517 | 44 | 45 | 1.7 | 3.5 | 0.00 | 0.00 | 0.00 | 93 | |
| 20260510013517 | 44 | 68 | 3.5 | 6.1 | 0.00 | 0.00 | 0.00 | 93 | |
| 20260510012518 | 44 | 45 | 2.6 | 6.1 | 0.00 | 0.00 | 0.00 | 93 | |
| 20260510011517 | 44 | 68 | 2.6 | 5.2 | 0.00 | 0.00 | 0.00 | 93 | |
| 20260510010517 | 44 | 68 | 1.7 | 7.0 | 0.00 | 0.00 | 0.00 | 94 | |
| 20260510005517 | 44 | 68 | 1.7 | 4.3 | 0.00 | 0.00 | 0.00 | 94 | |
| 20260510004517 | 44 | 68 | 3.5 | 7.8 | 0.00 | 0.00 | 0.00 | 94 | |
| 20260510003517 | 45 | 0 | 1.7 | 3.5 | 0.00 | 0.00 | 0.00 | 94 | |
| 20260510002517 | 44 | 68 | 1.7 | 5.2 | 0.00 | 0.00 | 0.00 | 95 | |
| 20260510001517 | 44 | 68 | 3.5 | 8.7 | 0.00 | 0.00 | 0.00 | 95 | |
| 20260510000517 | 45 | 45 | 2.6 | 6.1 | 0.00 | 0.00 | 0.00 | 95 | |
| 20260509235517 | 45 | 45 | 1.7 | 5.2 | 0.00 | 0.00 | 0.00 | 95 |